{"data":{"norad_id":63092,"intl_designator":"2025-037R","name":"STARLINK-32924","alt_names":[],"object_type":"PAYLOAD","status":"ACTIVE","operator":null,"country":"US","launch_date":"2025-02-23","launch_site_code":"AFWTR","launch_vehicle":null,"mission":null,"orbit_class":"UNKNOWN","rcs_meters":null,"size_class":null,"mass_kg":null,"dimensions":null,"purposes":["comms"],"wikipedia_slug":null,"has_3d_model":false,"image_url":null,"decayed_at":null,"tle_current":{"epoch":"2026-05-25T02:54:51.503616Z","epoch_age_seconds":64886,"freshness":"FRESH","line1":"1 63092U 25037R   26145.12142944  .00002007  00000+0  17593-3 0  9998","line2":"2 63092  70.0001 161.6300 0004086 266.0230  94.0462 14.98333708 70057","mean_motion":14.98333708,"eccentricity":0.0004086,"inclination_deg":70.0001,"raan_deg":161.63,"arg_perigee_deg":266.023,"mean_anomaly_deg":94.0462,"bstar":0.00017593,"rev_number":7005,"period_min":96.106761284983,"perigee_km":569.20458015398,"apogee_km":574.8842684139,"semimajor_km":6950.1814242839,"source":"CELESTRAK","updated_at":"2026-05-25T13:38:19.880169Z"}}}